Location: Newark
(45.9167°N, 5.5000°E)
Time: 02:03:42
(UTC+00:00)

N. Korean satellite - Pass Details

Date: 27 January 2020
Orbit: 456 x 505 km, 97.2° (Epoch: 25 February)

Event Time Altitude Azimuth Distance (km) Brightness Sun altitude
Rises 06:25:01 0° 358° (N) 2,543 10.0 -7.5°
Reaches altitude 10° 06:27:24 10° 343° (NNW) 1,669 8.9 -7.1°
Maximum altitude 06:30:09 21° 292° (WNW) 1,139 7.8 -6.6°
Drops below altitude 10° 06:32:55 10° 242° (WSW) 1,680 8.9 -6.2°
Sets 06:35:20 0° 226° (SW) 2,565 10.0 -5.8°
